Location: Jackson
(42.2460°N, 84.4010°W)
Time: 19:46:49
(UTC-04:00)

Courier 1B Rocket - Pass Details

Date: 17 February 2026
Orbit: 920 x 1201 km, 28.2° (Epoch: 13 March)

Event Time Altitude Azimuth Distance (km) Brightness Sun altitude
Rises 22:52:01 0° 250° (WSW) 3,611 - -49.8°
Reaches altitude 10° 22:55:12 10° 236° (SW) 2,702 - -50.3°
Maximum altitude 23:00:00 22° 188° (S) 2,046 - -50.9°
Drops below altitude 10° 23:05:01 10° 141° (SE) 2,841 - -51.6°
Sets 23:08:28 0° 127° (SE) 3,849 - -52.1°
